Home   Weather   Brampton   Past weeks
Flag for Canada

Past Weather in Brampton, Ontario, Canada — Yesterday and Last 2 Weeks

Now
34 °F

Passing clouds.


Feels Like: 20 °F
Forecast: N/A
Wind: 29 mph from Northwest

Location: Toronto Pearson International Airport

Current Time: Mar 22, 2019 at 5:15:34 pm

Latest Report: Mar 22, 2019 at 4:00 pm


Visibility: 15 mi

Pressure: 29.72 "Hg

Humidity: 60%

Dew Point: 21 °F

Location of BramptonLocation

Past Weather in Brampton — Graph

°F

Brampton Temperature Yesterday

Maximum temperature yesterday: 46 °F (at 4:00 pm)
Minimum temperature yesterday: 37 °F (at 3:00 am)
Average temperature yesterday: 40 °F

High & Low Weather Summary for the Past Weeks

 TemperatureHumidityPressure
High50 °F (Mar 15, 3:00 am)93% (Mar 10, 7:00 am)30.41 "Hg (Mar 10, 7:00 am)
Low7 °F (Mar 8, 4:00 am)35% (Mar 18, 4:00 pm)29.49 "Hg (Mar 15, 4:00 am)
Average33 °F68%30.06 "Hg
* Reported Mar 7 3:13 pm — Mar 22 4:00 pm, Brampton. Weather by CustomWeather, © 2019

Note: Actual official high and low records may vary slightly from our data, if they occured in-between our weather recording intervals... More about our weather records

Advertising

Brampton Weather History for the Previous 24 Hours

Scroll right to see more
 ConditionsComfort  
Time TempWeatherWind HumidityBarometerVisibility
4:00 pm
Fri, Mar 22
34 °FPassing clouds.29 mph60%29.72 "Hg15 mi
3:00 pm34 °FPartly sunny.35 mph65%29.71 "Hg15 mi
2:00 pm34 °FPartly sunny.28 mph70%29.70 "Hg15 mi
1:00 pm36 °FPartly sunny.32 mph70%29.68 "Hg15 mi
12:27 pm36 °FPartly sunny.30 mph75%29.67 "Hg15 mi
12:00 pm37 °FLight snow. Overcast.24 mph75%29.66 "Hg15 mi
11:42 am36 °FLight snow. Overcast.25 mph75%29.66 "Hg4 mi
11:12 am36 °FDrizzle. Overcast.25 mph75%29.65 "Hg12 mi
10:36 am37 °FDrizzle. Mostly cloudy.20 mph75%29.64 "Hg15 mi
10:00 am37 °FMostly cloudy.18 mph75%29.64 "Hg15 mi
9:00 am37 °FBroken clouds.13 mph81%29.64 "Hg15 mi
8:47 am37 °FPartly sunny.12 mph75%29.64 "Hg15 mi
8:00 am37 °FLight rain. Overcast.12 mph81%29.65 "Hg15 mi
7:40 am37 °FLight rain. Overcast.8 mph81%29.65 "Hg15 mi
7:00 am36 °FOvercast.8 mph87%29.65 "Hg15 mi
6:00 am36 °FOvercast.9 mph81%29.66 "Hg15 mi
5:00 am36 °FOvercast.8 mph81%29.67 "Hg15 mi
4:00 am36 °FPartly cloudy.9 mph81%29.69 "Hg15 mi
3:14 am36 °FMostly cloudy.9 mph81%29.71 "Hg15 mi
3:00 am37 °FDrizzle. Mostly cloudy.5 mph75%29.71 "Hg15 mi
2:00 am37 °FDrizzle. Overcast.12 mph81%29.73 "Hg15 mi
1:00 am37 °FOvercast.12 mph81%29.75 "Hg15 mi
12:00 am39 °FOvercast.15 mph75%29.77 "Hg15 mi
11:00 pm
Thu, Mar 21
41 °FOvercast.17 mph76%29.78 "Hg15 mi
10:00 pm41 °FOvercast.10 mph81%29.79 "Hg15 mi
9:00 pm43 °FMostly cloudy.10 mph76%29.80 "Hg15 mi
8:00 pm43 °FOvercast.6 mph71%29.80 "Hg15 mi
7:00 pm43 °FOvercast.3 mph71%29.80 "Hg15 mi
6:00 pm45 °FPartly sunny.No wind71%29.80 "Hg15 mi
5:00 pm46 °FPartly sunny.6 mph66%29.80 "Hg15 mi
Weather by CustomWeather, © 2019

See weather overview